EW2958 Weather Reports


Display with metric or nautical units.
time (UTC)temp
F
wind
direction
speed
MPH
gust
MPH
rain 1hr
in
rain 24hr
in
rain mn
in
humidity
%
barometer
mb
20260906181559 50 274 6.0 10.0 0.01 0.02 0.02 90 1023.0
20260906174532 50 269 3.0 8.0 0.01 0.01 0.01 90 1022.7
20260906173033 50 257 5.0 10.0 0.01 0.01 0.01 89 1022.8
20260906171529 50 288 3.0 6.0 0.01 0.01 0.01 88 1022.6
20260906170026 51 265 1.0 10.0 0.00 0.00 0.00 87 1022.8
20260906164524 51 264 6.0 11.0 0.00 0.00 0.00 85 1022.8
20260906163025 51 267 4.0 9.0 0.00 0.00 0.00 84 1022.8
20260906161521 51 270 1.0 5.0 0.00 0.00 0.00 85 1023.0
20260906160031 51 270 3.0 5.0 0.00 0.00 0.00 85 1023.0
20260906154534 51 271 1.0 3.0 0.00 0.00 0.00 85 1023.1
20260906153019 51 273 1.0 3.0 0.00 0.00 0.00 84 1023.1
20260906151509 51 276 2.0 4.0 0.00 0.00 0.00 83 1023.1
20260906150017 51 276 3.0 6.0 0.00 0.00 0.00 83 1023.1
20260906144508 51 278 4.0 7.0 0.00 0.00 0.00 84 1023.0
20260906143004 51 277 4.0 7.0 0.00 0.00 0.00 84 1023.0
20260906141501 52 257 4.0 7.0 0.00 0.00 0.00 84 1022.8
20260906134558 52 273 3.0 7.0 0.00 0.00 0.00 84 1023.0
20260906133106 52 293 3.0 6.0 0.00 0.00 0.00 84 1022.9
20260906131600 52 266 2.0 6.0 0.00 0.00 0.00 83 1023.1
20260906130057 52 274 3.0 5.0 0.00 0.00 0.00 82 1023.2
20260906124559 53 269 2.0 5.0 0.00 0.00 0.00 82 1023.3
20260906123056 53 278 1.0 4.0 0.00 0.00 0.00 82 1023.3
20260906121554 53 257 1.0 4.0 0.00 0.00 0.00 81 1023.3
20260906120054 53 275 2.0 5.0 0.00 0.00 0.00 81 1023.3
20260906114553 53 292 3.0 6.0 0.00 0.00 0.00 79 1023.3
20260906113053 54 255 4.0 8.0 0.00 0.00 0.00 78 1023.2
20260906111554 54 273 3.0 6.0 0.00 0.00 0.00 77 1023.1
20260906110051 54 264 3.0 6.0 0.00 0.00 0.00 77 1023.0
20260906104549 54 259 2.0 6.0 0.00 0.00 0.00 78 1023.0
20260906103052 54 253 0.0 4.0 0.00 0.00 0.00 79 1023.0
20260906101543 54 278 1.0 6.0 0.00 0.00 0.00 81 1022.8
20260906100041 54 286 2.0 6.0 0.00 0.00 0.00 82 1022.9
20260906094540 54 274 3.0 6.0 0.00 0.00 0.00 81 1022.8
20260906093039 55 264 3.0 9.0 0.00 0.00 0.00 80 1022.8
20260906091538 55 263 4.0 7.0 0.00 0.00 0.00 80 1022.6
20260906090034 55 272 4.0 6.0 0.00 0.00 0.00 80 1022.3
20260906084533 55 266 2.0 6.0 0.00 0.00 0.00 80 1022.1
20260906083039 55 269 3.0 7.0 0.00 0.00 0.00 79 1022.0
20260906081536 55 261 4.0 10.0 0.00 0.00 0.00 79 1022.0
20260906080030 56 254 3.0 8.0 0.00 0.00 0.00 80 1021.8
20260906074528 56 260 1.0 8.0 0.00 0.00 0.00 76 1021.6
20260906073027 56 282 5.0 9.0 0.00 0.00 0.00 76 1021.4
20260906071525 57 251 2.0 9.0 0.00 0.00 0.00 78 1021.3
20260906070025 57 256 3.0 10.0 0.00 0.00 0.00 76 1021.2
20260906064533 57 272 4.0 11.0 0.00 0.02 0.00 77 1021.2
20260906063024 57 256 5.0 14.0 0.00 0.02 0.00 77 1021.0
20260906061522 58 261 6.0 14.0 0.00 0.02 0.00 75 1021.0
20260906060022 58 283 6.0 14.0 0.00 0.02 0.00 74 1020.8
20260906054519 58 272 7.0 13.0 0.00 0.06 0.00 76 1021.0
20260906053023 58 271 3.0 14.0 0.00 0.06 0.00 76 1020.9
20260906051516 58 268 4.0 10.0 0.00 0.06 0.00 74 1020.8
20260906050043 58 273 6.0 12.0 0.00 0.06 0.00 75 1020.8
20260906044514 57 269 4.0 12.0 0.00 0.09 0.00 76 1020.8
20260906043012 57 268 8.0 17.0 0.00 0.09 0.00 76 1020.6
20260906041513 57 255 6.0 16.0 0.00 0.09 0.00 76 1020.7
20260906040010 57 290 5.0 14.0 0.00 0.09 0.00 76 1020.6
20260906034507 57 251 6.0 13.0 0.00 0.09 0.00 77 1020.5
20260906033005 57 250 5.0 10.0 0.00 0.09 0.00 76 1020.6
20260906031503 58 261 4.0 8.0 0.00 0.09 0.00 75 1020.7
20260906030133 57 304 5.0 8.0 0.00 0.09 0.00 74 1020.7
20260906024602 57 282 2.0 10.0 0.00 0.09 0.00 77 1020.7
20260906023117 57 269 3.0 8.0 0.00 0.09 0.00 76 1020.8
20260906021610 57 272 4.0 9.0 0.00 0.09 0.00 76 1021.1
20260906020059 56 251 5.0 10.0 0.00 0.09 0.00 77 1021.3
20260906014553 56 252 4.0 10.0 0.00 0.12 0.00 79 1021.4
20260906013051 56 264 5.0 9.0 0.00 0.12 0.00 79 1021.4
20260906011650 55 278 4.0 8.0 0.00 0.12 0.00 82 1021.3
20260906010047 55 232 2.0 7.0 0.00 0.12 0.00 82 1021.2
20260906004546 54 271 4.0 11.0 0.00 0.12 0.00 82 1021.2
20260906003050 55 258 3.0 8.0 0.00 0.12 0.00 81 1021.1
20260906001540 54 243 3.0 11.0 0.00 0.12 0.00 81 1020.9
20260906000040 54 257 4.0 11.0 0.00 0.12 0.00 82 1020.8
20260905234544 54 270 5.0 13.0 0.00 0.12 0.00 82 1020.8
20260905233036 53 255 4.0 10.0 0.00 0.12 0.00 82 1020.6
20260905231534 54 250 3.0 11.0 0.00 0.12 0.00 83 1020.5
20260905230031 53 247 3.0 13.0 0.00 0.12 0.00 83 1020.1
20260905224529 53 246 4.0 12.0 0.00 0.12 0.00 84 1020.1
20260905223026 52 252 6.0 14.0 0.00 0.12 0.00 85 1019.8
20260905221523 52 264 5.0 11.0 0.00 0.12 0.00 86 1019.5
20260905220027 52 269 6.0 11.0 0.00 0.12 0.00 87 1019.4
20260905214520 51 257 7.0 13.0 0.00 0.12 0.00 87 1019.2
20260905213019 51 266 7.0 12.0 0.00 0.12 0.00 88 1018.9
20260905211514 50 275 7.0 14.0 0.00 0.12 0.00 88 1018.7
20260905210012 50 280 8.0 13.0 0.00 0.12 0.00 88 1018.4
20260905204511 50 270 5.0 10.0 0.00 0.12 0.00 88 1018.2
20260905203006 51 271 8.0 14.0 0.00 0.12 0.00 88 1017.8
20260905201503 51 266 9.0 15.0 0.00 0.12 0.00 88 1017.6
20260905200001 51 257 7.0 15.0 0.00 0.13 0.00 87 1017.4
20260905194601 51 267 8.0 13.0 0.00 0.13 0.00 87 1017.5
20260905193058 51 288 6.0 12.0 0.00 0.13 0.00 87 1017.4
20260905191609 51 269 6.0 12.0 0.00 0.13 0.00 88 1017.3
20260905190053 51 275 7.0 15.0 0.00 0.13 0.00 89 1017.1
20260905184604 51 278 6.0 17.0 0.00 0.14 0.00 89 1016.7
20260905183049 51 269 8.0 13.0 0.00 0.14 0.00 90 1016.5